ANZ523 NZWN-NZQN

Flight info

Callsign ANZ523
Flight time N/A
Altitude 32000
Route UPLUD2PSABDA/34 SABDA Y622 MESIX H159 CH Y266 ELRUV ELRU4A/05
Aircraft A320/M-SDE3FGHIRWY/LB1

Departure

Time N/A
Airport Wellington International Airport (NZWN)

Arrival

Time 2026-05-01 08:05
Airport Queenstown Airport (NZQN)
Time Latitude Longitude Altitude Speed Heading
2026-05-01 07:23 -42.67464 173.66248 32577 ft 462 kts 213°
2026-05-01 07:24 -42.75396 173.58769 32569 ft 462 kts 213°
2026-05-01 07:24 -42.80691 173.53783 32572 ft 463 kts 213°
2026-05-01 07:25 -42.85987 173.48794 32568 ft 463 kts 213°
2026-05-01 07:25 -42.91275 173.43790 32566 ft 463 kts 213°
2026-05-01 07:26 -42.96556 173.38766 32565 ft 462 kts 213°
2026-05-01 07:26 -43.01833 173.33740 32565 ft 462 kts 212°
2026-05-01 07:27 -43.07115 173.28712 32562 ft 462 kts 212°
2026-05-01 07:27 -43.12039 173.22967 32562 ft 467 kts 228°
2026-05-01 07:28 -43.15925 173.15828 32560 ft 468 kts 231°
2026-05-01 07:28 -43.19800 173.08674 32555 ft 467 kts 231°
2026-05-01 07:29 -43.23674 173.01520 32552 ft 467 kts 231°
2026-05-01 07:29 -43.27544 172.94344 32553 ft 468 kts 231°
2026-05-01 07:30 -43.31400 172.87157 32565 ft 468 kts 231°
2026-05-01 07:30 -43.35248 172.79963 32563 ft 468 kts 231°
2026-05-01 07:31 -43.39093 172.72754 32565 ft 467 kts 231°
2026-05-01 07:32 -43.48679 172.54745 32579 ft 466 kts 232°
2026-05-01 07:33 -43.53829 172.43383 32577 ft 467 kts 238°
2026-05-01 07:33 -43.58716 172.31774 32584 ft 466 kts 238°
2026-05-01 07:34 -43.63588 172.20173 32573 ft 466 kts 238°
2026-05-01 07:35 -43.66821 172.12424 32571 ft 465 kts 238°
2026-05-01 07:35 -43.70073 172.04632 32571 ft 465 kts 238°
2026-05-01 07:36 -43.73299 171.96893 32572 ft 464 kts 238°
2026-05-01 07:36 -43.76507 171.89144 32572 ft 464 kts 238°
2026-05-01 07:37 -43.81306 171.77515 32569 ft 463 kts 238°
2026-05-01 07:37 -43.84504 171.69778 32569 ft 463 kts 238°
2026-05-01 07:38 -43.87770 171.62093 32566 ft 463 kts 237°
2026-05-01 07:39 -43.92179 171.51842 32568 ft 462 kts 237°
2026-05-01 07:39 -43.97610 171.39071 32568 ft 462 kts 238°
2026-05-01 07:40 -44.00328 171.32625 32570 ft 462 kts 238°
2026-05-01 07:40 -44.03569 171.24922 32564 ft 462 kts 238°
2026-05-01 07:41 -44.06807 171.17217 32566 ft 461 kts 238°
2026-05-01 07:42 -44.11654 171.05654 32565 ft 461 kts 238°
2026-05-01 07:42 -44.14871 170.97935 32304 ft 461 kts 238°
2026-05-01 07:42 -44.16484 170.94071 32046 ft 461 kts 238°
2026-05-01 07:43 -44.18096 170.90205 31793 ft 462 kts 239°
2026-05-01 07:43 -44.19707 170.86337 31543 ft 462 kts 239°
2026-05-01 07:43 -44.22930 170.78574 31047 ft 463 kts 239°
2026-05-01 07:44 -44.26146 170.70772 30562 ft 464 kts 239°
2026-05-01 07:44 -44.29364 170.62952 30000 ft 465 kts 239°
2026-05-01 07:45 -44.30982 170.59033 29726 ft 466 kts 239°
2026-05-01 07:45 -44.32600 170.55110 29450 ft 467 kts 239°
2026-05-01 07:45 -44.34217 170.51175 29176 ft 467 kts 239°
2026-05-01 07:45 -44.35832 170.47233 28888 ft 468 kts 240°
2026-05-01 07:46 -44.37477 170.43214 27799 ft 472 kts 240°
2026-05-01 07:46 -44.39101 170.39235 26839 ft 471 kts 240°
2026-05-01 07:46 -44.42297 170.31398 25257 ft 455 kts 240°
2026-05-01 07:47 -44.43852 170.27575 24231 ft 449 kts 240°
2026-05-01 07:47 -44.45380 170.23808 23052 ft 443 kts 241°
2026-05-01 07:47 -44.46886 170.20088 21957 ft 436 kts 241°
2026-05-01 07:47 -44.48367 170.16429 20899 ft 429 kts 241°
2026-05-01 07:48 -44.51277 170.09248 19242 ft 420 kts 241°
2026-05-01 07:48 -44.52719 170.05687 18764 ft 420 kts 241°
2026-05-01 07:48 -44.54154 170.02131 18323 ft 419 kts 242°
2026-05-01 07:49 -44.55577 169.98593 17696 ft 414 kts 242°
2026-05-01 07:49 -44.58384 169.91606 16733 ft 409 kts 242°
2026-05-01 07:49 -44.59771 169.88145 16246 ft 405 kts 242°
2026-05-01 07:50 -44.61149 169.84710 15772 ft 402 kts 242°
2026-05-01 07:50 -44.63875 169.77899 15564 ft 400 kts 242°
2026-05-01 07:50 -44.65233 169.74487 15566 ft 400 kts 242°
2026-05-01 07:51 -44.66591 169.71076 15564 ft 400 kts 242°
2026-05-01 07:51 -44.67950 169.67657 15357 ft 401 kts 242°
2026-05-01 07:51 -44.69299 169.64259 14918 ft 397 kts 242°
2026-05-01 07:52 -44.71974 169.57519 14152 ft 392 kts 242°
2026-05-01 07:52 -44.73319 169.54134 13764 ft 390 kts 242°
2026-05-01 07:52 -44.74635 169.50812 13100 ft 390 kts 242°
2026-05-01 07:53 -44.77229 169.44244 12107 ft 377 kts 242°
2026-05-01 07:53 -44.78500 169.41011 11767 ft 376 kts 242°
2026-05-01 07:53 -44.79737 169.37860 11558 ft 359 kts 242°
2026-05-01 07:53 -44.80921 169.34848 11366 ft 343 kts 243°
2026-05-01 07:54 -44.82307 169.28917 11119 ft 295 kts 258°
2026-05-01 07:55 -44.83570 169.21338 10638 ft 243 kts 258°
2026-05-01 07:55 -44.84332 169.16761 9671 ft 241 kts 258°
2026-05-01 07:56 -44.86420 169.10469 8859 ft 240 kts 230°
2026-05-01 07:56 -44.89077 169.07663 8420 ft 241 kts 208°
2026-05-01 07:57 -44.90661 169.06832 8086 ft 246 kts 198°
2026-05-01 07:57 -44.94066 169.06480 7419 ft 243 kts 179°
2026-05-01 07:58 -44.97324 169.06809 6829 ft 227 kts 179°
2026-05-01 07:58 -45.00336 169.06350 6222 ft 206 kts 206°
2026-05-01 07:59 -45.02495 169.04053 5678 ft 191 kts 234°
2026-05-01 07:59 -45.03534 169.00910 5176 ft 160 kts 261°
2026-05-01 08:00 -45.03023 168.95406 4333 ft 138 kts 295°
2026-05-01 08:01 -45.01548 168.91930 3654 ft 137 kts 303°
2026-05-01 08:01 -45.01033 168.90789 3530 ft 139 kts 303°
2026-05-01 08:01 -45.00522 168.89629 3353 ft 140 kts 301°
2026-05-01 08:02 -44.99865 168.87061 2912 ft 141 kts 276°
2026-05-01 08:02 -44.99895 168.85683 2729 ft 140 kts 263°
2026-05-01 08:03 -45.00319 168.83019 2367 ft 138 kts 258°
2026-05-01 08:03 -45.00539 168.81704 2205 ft 137 kts 257°
2026-05-01 08:03 -45.01075 168.79125 1758 ft 137 kts 255°
2026-05-01 08:04 -45.01546 168.76506 1336 ft 139 kts 257°
2026-05-01 08:04 -45.01913 168.74134 1163 ft 75 kts 257°
2026-05-01 08:05 -45.02000 168.73521 1162 ft 12 kts 225°
2026-05-01 08:05 -45.02006 168.73580 1165 ft 14 kts 73°
2026-05-01 08:05 -45.01963 168.73806 1168 ft 28 kts 76°
2026-05-01 08:06 -45.02032 168.74009 1163 ft 14 kts 198°
2026-05-01 08:06 -45.02110 168.73963 1164 ft 1 kts 206°